TimeCST,TemperatureF,Dew PointF,Humidity,Sea Level PressureIn,VisibilityMPH,Wind Direction,Wind SpeedMPH,Gust SpeedMPH,PrecipitationIn,Events,Conditions,WindDirDegrees,DateUTC
12:15 AM,49.6,49.6,100,30.30,7.0,Calm,Calm,-,N/A,Rain,Light Rain,0,2013-11-05 06:15:00
12:35 AM,49.5,49.5,100,30.31,5.0,Calm,Calm,-,N/A,,Scattered Clouds,0,2013-11-05 06:35:00
12:55 AM,49.1,49.1,100,30.31,4.0,Calm,Calm,-,N/A,,Scattered Clouds,0,2013-11-05 06:55:00
1:15 AM,49.1,49.1,100,30.30,5.0,Calm,Calm,-,N/A,,Scattered Clouds,0,2013-11-05 07:15:00
1:35 AM,48.7,48.7,100,30.31,5.0,Calm,Calm,-,N/A,,Clear,0,2013-11-05 07:35:00
1:55 AM,48.7,48.7,100,30.30,4.0,Calm,Calm,-,N/A,,Clear,0,2013-11-05 07:55:00
2:15 AM,48.6,48.6,100,30.29,5.0,Calm,Calm,-,N/A,,Clear,0,2013-11-05 08:15:00
2:35 AM,48.7,48.7,100,30.29,7.0,Calm,Calm,-,N/A,,Clear,0,2013-11-05 08:35:00
2:55 AM,48.6,48.6,100,30.29,7.0,Calm,Calm,-,N/A,,Clear,0,2013-11-05 08:55:00
3:15 AM,48.2,48.2,100,30.30,5.0,Calm,Calm,-,N/A,,Clear,0,2013-11-05 09:15:00
3:35 AM,47.8,47.8,100,30.29,5.0,Calm,Calm,-,N/A,,Clear,0,2013-11-05 09:35:00
3:55 AM,47.8,47.8,100,30.30,5.0,Calm,Calm,-,N/A,,Clear,0,2013-11-05 09:55:00
4:15 AM,48.2,48.2,100,30.29,5.0,ENE,3.5,-,N/A,,Clear,70,2013-11-05 10:15:00
4:35 AM,48.4,48.4,100,30.29,7.0,Calm,Calm,-,N/A,,Clear,0,2013-11-05 10:35:00
4:55 AM,48.6,48.6,100,30.30,7.0,Calm,Calm,-,N/A,,Clear,0,2013-11-05 10:55:00
5:15 AM,48.7,48.7,100,30.30,10.0,Calm,Calm,-,N/A,,Clear,0,2013-11-05 11:15:00
5:35 AM,49.1,49.1,100,30.30,10.0,ENE,3.5,-,N/A,,Clear,70,2013-11-05 11:35:00
5:55 AM,49.5,48.6,97,30.31,10.0,Calm,Calm,-,N/A,,Clear,0,2013-11-05 11:55:00
6:15 AM,49.3,47.8,95,30.30,10.0,East,3.5,-,N/A,,Clear,90,2013-11-05 12:15:00
6:35 AM,49.5,47.5,93,30.31,1.2,SE,3.5,-,N/A,,Mist,130,2013-11-05 12:35:00
6:55 AM,49.5,47.3,92,30.32,1.0,Calm,Calm,-,N/A,,Mist,0,2013-11-05 12:55:00
7:15 AM,49.5,47.7,94,30.32,1.5,Calm,Calm,-,N/A,,Mist,0,2013-11-05 13:15:00
7:35 AM,50.4,48.7,94,30.33,1.5,Calm,Calm,-,N/A,,Mist,0,2013-11-05 13:35:00
7:55 AM,52.0,49.3,90,30.34,2.5,Calm,Calm,-,N/A,,Clear,0,2013-11-05 13:55:00
8:15 AM,54.0,47.5,79,30.34,10.0,Calm,Calm,-,N/A,,Clear,0,2013-11-05 14:15:00
8:35 AM,54.5,46.6,75,30.35,7.0,SSE,3.5,-,0.01,,Scattered Clouds,160,2013-11-05 14:35:00
8:55 AM,55.9,46.8,71,30.35,7.0,SSE,5.8,-,0.01,,Clear,160,2013-11-05 14:55:00
9:15 AM,57.4,46.9,68,30.35,10.0,SSE,8.1,-,N/A,,Clear,160,2013-11-05 15:15:00
9:35 AM,58.5,45.1,61,30.34,10.0,South,11.5,-,N/A,,Mostly Cloudy,170,2013-11-05 15:35:00
9:55 AM,59.9,45.0,58,30.34,10.0,South,10.4,-,N/A,,Scattered Clouds,180,2013-11-05 15:55:00
10:15 AM,59.5,43.5,55,30.33,10.0,South,10.4,16.1,N/A,,Clear,180,2013-11-05 16:15:00
10:35 AM,59.9,44.1,56,30.33,10.0,SSE,9.2,18.4,N/A,,Clear,160,2013-11-05 16:35:00
10:55 AM,60.8,44.4,55,30.31,10.0,South,11.5,16.1,N/A,,Clear,170,2013-11-05 16:55:00
11:15 AM,60.8,44.8,56,30.31,10.0,South,8.1,-,N/A,,Clear,170,2013-11-05 17:15:00
11:35 AM,61.2,44.8,55,30.30,10.0,South,6.9,-,N/A,,Scattered Clouds,170,2013-11-05 17:35:00
11:55 AM,61.3,45.0,55,30.29,10.0,South,5.8,-,N/A,,Scattered Clouds,170,2013-11-05 17:55:00
12:15 PM,62.4,45.3,54,30.28,10.0,SE,4.6,-,N/A,,Clear,130,2013-11-05 18:15:00
12:35 PM,63.1,45.5,53,30.26,10.0,South,9.2,-,N/A,,Clear,170,2013-11-05 18:35:00
12:55 PM,63.7,45.7,52,30.26,10.0,SSE,9.2,-,N/A,,Clear,160,2013-11-05 18:55:00
1:15 PM,64.0,45.9,52,30.25,10.0,South,9.2,-,N/A,,Clear,170,2013-11-05 19:15:00
1:35 PM,64.4,46.6,52,30.24,10.0,South,4.6,-,N/A,,Mostly Cloudy,190,2013-11-05 19:35:00
1:55 PM,64.6,46.9,53,30.23,10.0,SSE,8.1,-,N/A,,Mostly Cloudy,150,2013-11-05 19:55:00
2:15 PM,64.4,45.9,51,30.23,10.0,SSE,10.4,-,N/A,,Scattered Clouds,150,2013-11-05 20:15:00
2:35 PM,63.9,45.9,52,30.22,10.0,SSE,9.2,-,N/A,,Mostly Cloudy,150,2013-11-05 20:35:00
2:55 PM,63.9,45.9,52,30.22,10.0,SE,9.2,-,N/A,,Overcast,140,2013-11-05 20:55:00
3:15 PM,63.5,45.5,52,30.21,10.0,SE,8.1,-,N/A,,Overcast,140,2013-11-05 21:15:00
3:35 PM,62.8,45.3,53,30.21,10.0,SE,8.1,-,N/A,,Overcast,140,2013-11-05 21:35:00
3:55 PM,62.4,45.3,54,30.21,10.0,SE,8.1,-,N/A,,Overcast,140,2013-11-05 21:55:00
4:15 PM,61.7,45.7,56,30.20,10.0,SE,5.8,-,N/A,,Overcast,140,2013-11-05 22:15:00
4:35 PM,60.8,46.8,60,30.19,10.0,SE,6.9,-,N/A,,Overcast,130,2013-11-05 22:35:00
4:55 PM,60.1,46.9,62,30.19,10.0,SE,5.8,-,N/A,,Overcast,130,2013-11-05 22:55:00
5:15 PM,59.7,46.8,62,30.19,10.0,SE,4.6,-,N/A,,Overcast,140,2013-11-05 23:15:00
5:35 PM,59.0,47.3,65,30.19,10.0,SE,3.5,-,N/A,,Overcast,140,2013-11-05 23:35:00
5:55 PM,59.2,46.8,63,30.18,10.0,SE,5.8,-,N/A,,Overcast,130,2013-11-05 23:55:00
6:15 PM,59.0,47.3,65,30.18,10.0,SE,4.6,-,N/A,,Overcast,130,2013-11-06 00:15:00
6:35 PM,59.0,47.3,65,30.17,10.0,Calm,Calm,-,N/A,,Overcast,0,2013-11-06 00:35:00
6:55 PM,59.4,47.3,64,30.17,10.0,Calm,Calm,-,N/A,,Overcast,0,2013-11-06 00:55:00
7:15 PM,59.5,47.5,64,30.17,10.0,Calm,Calm,-,N/A,,Overcast,0,2013-11-06 01:15:00
7:35 PM,59.5,47.7,65,30.15,10.0,SE,6.9,-,N/A,,Overcast,130,2013-11-06 01:35:00
7:55 PM,59.9,47.3,63,30.15,10.0,SE,8.1,-,N/A,,Overcast,140,2013-11-06 01:55:00
8:15 PM,59.4,47.3,64,30.15,10.0,SE,8.1,-,N/A,,Overcast,130,2013-11-06 02:15:00
8:35 PM,59.4,47.3,64,30.15,10.0,SE,5.8,-,N/A,,Overcast,130,2013-11-06 02:35:00
8:55 PM,59.0,47.5,66,30.15,10.0,SE,5.8,-,N/A,,Overcast,140,2013-11-06 02:55:00
9:15 PM,59.4,47.3,64,30.15,10.0,SSE,8.1,-,N/A,,Overcast,150,2013-11-06 03:15:00
9:35 PM,60.8,47.5,62,30.15,10.0,SSE,9.2,-,N/A,,Overcast,160,2013-11-06 03:35:00
9:55 PM,60.8,48.2,63,30.15,10.0,South,6.9,-,N/A,,Overcast,170,2013-11-06 03:55:00
10:15 PM,61.7,48.6,62,30.15,10.0,South,10.4,-,N/A,,Overcast,170,2013-11-06 04:15:00
10:35 PM,61.9,48.4,61,30.14,10.0,South,10.4,-,N/A,,Overcast,170,2013-11-06 04:35:00
10:55 PM,61.7,48.4,62,30.14,10.0,South,11.5,17.3,N/A,,Mostly Cloudy,180,2013-11-06 04:55:00
11:15 PM,62.1,48.2,60,30.14,10.0,South,11.5,18.4,N/A,,Overcast,180,2013-11-06 05:15:00
11:35 PM,61.9,48.2,61,30.14,10.0,South,13.8,-,N/A,,Overcast,180,2013-11-06 05:35:00
11:55 PM,61.7,47.7,60,30.14,10.0,South,15.0,20.7,N/A,,Overcast,190,2013-11-06 05:55:00